contact: severine.martini@mio.osupytheas.fr, dominique.lefevre@mio.osupytheas.fr
Project:EMSO Ligure-ouest http://www.emso-fr.org/EMSO-France
Sensor Aquadopp, Serial 05974 
DOI : "https://doi.org/10.17882/97948" 
Title:EMSO Western Ligurian : Data Bathybot Aquadopp sensor - deploiement 2023-04-28
Datetime,Profondeur,Latitude,Longitude,X_East,Y_North,Z_up,Amplitude_X,Amplitude_Y,Amplitude_Z,Batterie,Sound_Speed,Heading,Pitch,Roll,Pressure,Temperature,Fluorescence,Speed,Direction
time,m,degree_north,degree_east,m.s-1,m.s-1,m.s-1,1,1,1,Volt,m.s-1,degree,degree,degree,dbar,degree_C,arbitrary units (a.u.),m.s-1,degree
2023-12-17T00:03:14,2420,42.8014,5.9826,0.703,0.04,3.665,155.0,152.0,152.0,11.8,1504.7,271.5,-0.8,0.8,2485.344,13.28,774.0,0.704,86.7
2023-12-17T00:06:14,2420,42.8014,5.9826,0.456,0.291,3.479,155.0,151.0,152.0,11.8,1504.7,271.3,-0.8,0.9,2485.558,13.28,778.0,0.541,57.5
2023-12-17T00:09:13,2420,42.8014,5.9826,0.68,0.282,3.246,155.0,151.0,152.0,11.8,1504.7,271.3,-0.8,0.9,2485.368,13.28,773.0,0.736,67.5
2023-12-17T00:12:13,2420,42.8014,5.9826,0.796,0.042,3.565,155.0,152.0,152.0,11.8,1504.7,271.3,-0.8,0.9,2485.496,13.28,766.0,0.797,87.0
2023-12-17T00:15:13,2420,42.8014,5.9826,1.078,0.019,3.251,155.0,151.0,152.0,11.8,1504.7,271.3,-0.8,0.9,2485.572,13.28,783.0,1.078,89.0
2023-12-17T00:18:14,2420,42.8014,5.9826,0.966,0.055,3.394,155.0,151.0,152.0,11.8,1504.7,271.3,-0.9,0.9,2485.5,13.28,792.0,0.968,86.7
2023-12-17T00:21:14,2420,42.8014,5.9826,0.714,0.036,3.629,155.0,151.0,152.0,11.8,1504.7,271.6,-0.8,0.9,2485.639,13.28,780.0,0.715,87.1
2023-12-17T00:24:14,2420,42.8014,5.9826,0.702,0.047,3.631,155.0,151.0,152.0,11.8,1504.7,271.5,-0.8,0.9,2485.151,13.28,781.0,0.703,86.2
2023-12-17T00:27:14,2420,42.8014,5.9826,0.83,-0.226,3.071,155.0,151.0,152.0,11.8,1504.7,271.7,-0.8,0.9,2485.261,13.28,776.0,0.86,105.2
2023-12-17T00:30:13,2420,42.8014,5.9826,0.699,0.041,3.676,155.0,151.0,152.0,11.8,1504.7,271.4,-0.9,0.9,2485.179,13.28,788.0,0.7,86.6
2023-12-17T00:33:13,2420,42.8014,5.9826,0.785,-0.196,3.094,155.0,151.0,152.0,11.8,1504.7,271.4,-0.8,0.9,2485.02,13.28,774.0,0.809,104.0
2023-12-17T00:36:13,2420,42.8014,5.9826,0.605,0.298,3.293,155.0,151.0,152.0,11.8,1504.7,271.5,-0.8,0.9,2485.006,13.28,764.0,0.674,63.8
2023-12-17T00:39:13,2420,42.8014,5.9826,0.814,0.022,3.474,155.0,151.0,152.0,11.8,1504.7,271.4,-0.8,0.9,2485.177,13.28,1346.0,0.814,88.5
2023-12-17T00:42:13,2420,42.8014,5.9826,0.853,0.043,3.452,155.0,151.0,152.0,11.8,1504.7,271.4,-0.8,0.9,2485.287,13.28,772.0,0.854,87.1
2023-12-17T00:45:14,2420,42.8014,5.9826,0.652,0.036,3.675,155.0,151.0,152.0,11.8,1504.7,271.4,-0.8,0.9,2485.376,13.28,772.0,0.653,86.8
2023-12-17T00:48:14,2420,42.8014,5.9826,0.787,0.049,3.5,155.0,151.0,152.0,11.8,1504.7,271.5,-0.8,0.9,2485.538,13.28,769.0,0.789,86.4
2023-12-17T00:51:14,2420,42.8014,5.9826,0.471,0.286,3.398,155.0,151.0,152.0,11.8,1504.7,271.3,-0.9,0.9,2485.476,13.28,773.0,0.551,58.7
2023-12-17T00:54:13,2420,42.8014,5.9826,0.804,0.038,3.466,155.0,151.0,152.0,11.7,1504.7,271.3,-0.8,0.9,2485.462,13.28,760.0,0.805,87.3
2023-12-17T00:57:13,2420,42.8014,5.9826,0.658,0.305,3.232,155.0,151.0,152.0,11.8,1504.7,271.3,-0.8,0.9,2485.285,13.28,782.0,0.725,65.1
2023-12-17T01:03:13,2420,42.8014,5.9826,0.437,0.052,3.889,155.0,152.0,152.0,11.8,1504.7,271.4,-0.8,0.9,2485.759,13.28,771.0,0.44,83.2
2023-12-17T01:06:13,2420,42.8014,5.9826,0.698,0.033,3.599,155.0,151.0,152.0,11.8,1504.7,271.4,-0.8,0.9,2485.438,13.28,774.0,0.699,87.3
2023-12-17T01:09:13,2420,42.8014,5.9826,0.658,0.031,3.71,155.0,151.0,152.0,11.8,1504.7,271.3,-0.9,0.9,2485.408,13.28,767.0,0.659,87.3
2023-12-17T01:12:13,2420,42.8014,5.9826,0.638,0.04,3.75,155.0,151.0,152.0,11.8,1504.7,271.3,-0.8,0.9,2485.34,13.28,782.0,0.639,86.4
2023-12-17T01:15:14,2420,42.8014,5.9826,0.468,0.054,3.877,155.0,151.0,152.0,11.8,1504.7,271.5,-0.8,0.9,2485.448,13.28,816.0,0.471,83.4
2023-12-17T01:18:14,2420,42.8014,5.9826,0.634,0.052,3.721,155.0,151.0,152.0,11.8,1504.7,271.3,-0.8,0.9,2485.406,13.28,788.0,0.636,85.3
2023-12-17T01:21:14,2420,42.8014,5.9826,0.667,0.023,3.659,155.0,151.0,152.0,11.8,1504.7,271.5,-0.8,0.9,2485.462,13.28,883.0,0.667,88.0
2023-12-17T01:24:14,2420,42.8014,5.9826,0.797,0.019,3.517,155.0,152.0,152.0,11.8,1504.7,271.3,-0.8,0.9,2485.528,13.28,781.0,0.797,88.6
2023-12-17T01:27:14,2420,42.8014,5.9826,0.555,-0.183,3.331,155.0,151.0,152.0,11.8,1504.7,271.3,-0.8,0.9,2485.285,13.28,781.0,0.584,108.2
2023-12-17T01:30:13,2420,42.8014,5.9826,0.656,0.058,3.633,155.0,152.0,152.0,11.8,1504.7,271.4,-0.8,0.9,2485.456,13.28,776.0,0.658,85.0
2023-12-17T01:33:13,2420,42.8014,5.9826,0.568,0.276,3.357,155.0,151.0,152.0,11.8,1504.7,271.4,-0.8,0.9,2485.448,13.28,771.0,0.631,64.1
2023-12-17T01:36:13,2420,42.8014,5.9826,0.646,0.054,3.692,155.0,151.0,152.0,11.8,1504.7,271.4,-0.8,0.9,2485.577,13.28,776.0,0.648,85.2
2023-12-17T01:39:13,2420,42.8014,5.9826,0.582,-0.198,3.371,155.0,152.0,152.0,11.8,1504.7,271.4,-0.8,0.9,2485.215,13.28,758.0,0.615,108.8
2023-12-17T01:42:14,2420,42.8014,5.9826,0.609,0.063,3.727,155.0,151.0,152.0,11.8,1504.7,271.3,-0.8,0.9,2485.56,13.28,763.0,0.612,84.1
2023-12-17T01:45:14,2420,42.8014,5.9826,0.526,0.306,3.431,155.0,151.0,152.0,11.8,1504.7,271.4,-0.9,0.9,2485.348,13.28,777.0,0.608,59.8
2023-12-17T01:48:14,2420,42.8014,5.9826,0.591,0.075,3.754,155.0,151.0,152.0,11.8,1504.7,271.3,-0.8,0.9,2485.649,13.28,1207.0,0.596,82.8
2023-12-17T01:51:14,2420,42.8014,5.9826,0.755,0.029,3.621,155.0,151.0,152.0,11.8,1504.7,271.3,-0.8,0.9,2485.583,13.28,775.0,0.756,87.8
2023-12-17T01:54:13,2420,42.8014,5.9826,0.702,0.265,3.188,155.0,151.0,152.0,11.8,1504.7,271.4,-0.8,0.9,2485.504,13.28,791.0,0.75,69.3
2023-12-17T01:57:13,2420,42.8014,5.9826,0.649,0.279,3.272,155.0,151.0,152.0,11.8,1504.7,271.4,-0.8,0.9,2485.157,13.28,779.0,0.706,66.7
2023-12-17T02:03:13,2420,42.8014,5.9826,0.782,0.289,3.108,155.0,151.0,152.0,11.8,1504.7,271.3,-0.9,0.9,2485.261,13.28,785.0,0.834,69.7
2023-12-17T02:06:13,2420,42.8014,5.9826,0.647,0.048,3.701,155.0,151.0,152.0,11.8,1504.7,271.3,-0.9,0.9,2485.428,13.28,778.0,0.649,85.8
2023-12-17T02:09:13,2420,42.8014,5.9826,0.645,0.283,3.306,155.0,151.0,152.0,11.8,1504.7,271.5,-0.8,0.9,2485.149,13.28,775.0,0.704,66.3
2023-12-17T02:12:14,2420,42.8014,5.9826,0.496,0.302,3.397,155.0,151.0,152.0,11.8,1504.7,271.3,-0.9,0.9,2485.374,13.28,767.0,0.581,58.7
2023-12-17T02:15:14,2420,42.8014,5.9826,0.654,0.281,3.275,155.0,151.0,152.0,11.8,1504.7,271.3,-0.9,0.9,2485.356,13.28,777.0,0.712,66.8
2023-12-17T02:18:14,2420,42.8014,5.9826,0.427,0.295,3.446,155.0,151.0,152.0,11.8,1504.7,271.4,-0.8,0.9,2485.506,13.28,763.0,0.519,55.4
2023-12-17T02:21:13,2420,42.8014,5.9826,0.707,0.03,3.674,155.0,151.0,152.0,11.7,1504.7,271.3,-0.8,0.9,2485.412,13.28,775.0,0.708,87.6
2023-12-17T02:24:13,2420,42.8014,5.9826,0.727,0.046,2.748,155.0,151.0,152.0,11.8,1504.7,271.3,-0.8,0.9,2485.34,13.28,800.0,0.728,86.4
2023-12-17T02:27:13,2420,42.8014,5.9826,0.731,0.022,3.59,155.0,151.0,152.0,11.8,1504.7,271.4,-0.8,0.9,2485.518,13.28,794.0,0.731,88.3
2023-12-17T02:30:13,2420,42.8014,5.9826,0.694,0.039,3.633,155.0,151.0,152.0,11.8,1504.7,271.4,-0.8,0.9,2485.338,13.28,777.0,0.695,86.8
2023-12-17T02:33:13,2420,42.8014,5.9826,0.576,0.048,3.812,155.0,151.0,152.0,11.8,1504.7,271.4,-0.8,0.9,2485.414,13.28,771.0,0.578,85.2
2023-12-17T02:36:13,2420,42.8014,5.9826,0.761,0.055,3.577,155.0,151.0,152.0,11.8,1504.7,271.5,-0.8,0.9,2485.44,13.28,760.0,0.763,85.9
2023-12-17T02:39:13,2420,42.8014,5.9826,0.741,0.035,3.635,155.0,152.0,152.0,11.8,1504.7,271.4,-0.9,0.9,2485.33,13.28,767.0,0.742,87.3
2023-12-17T02:42:14,2420,42.8014,5.9826,0.775,0.287,3.163,155.0,151.0,152.0,11.8,1504.7,271.4,-0.8,0.9,2485.671,13.28,781.0,0.826,69.7
2023-12-17T02:45:14,2420,42.8014,5.9826,0.59,-0.206,3.287,155.0,151.0,152.0,11.8,1504.7,271.3,-0.8,0.9,2485.462,13.28,773.0,0.625,109.2
2023-12-17T02:48:14,2420,42.8014,5.9826,0.687,0.04,3.655,155.0,151.0,152.0,11.8,1504.7,271.4,-0.8,0.9,2485.364,13.28,768.0,0.688,86.7
2023-12-17T02:51:13,2420,42.8014,5.9826,0.537,0.046,3.803,155.0,151.0,152.0,11.8,1504.7,271.4,-0.8,0.9,2485.926,13.28,765.0,0.539,85.1
2023-12-17T02:54:13,2420,42.8014,5.9826,0.868,0.033,3.477,155.0,151.0,152.0,11.8,1504.7,271.5,-0.8,0.9,2485.522,13.28,763.0,0.869,87.8
2023-12-17T02:57:13,2420,42.8014,5.9826,0.549,0.078,3.828,155.0,151.0,152.0,11.8,1504.7,271.4,-0.8,0.9,2485.209,13.28,776.0,0.554,81.9
2023-12-17T03:03:13,2420,42.8014,5.9826,1.083,0.037,3.263,155.0,151.0,152.0,11.8,1504.7,271.0,-0.8,0.9,2485.374,13.28,774.0,1.083,88.0
2023-12-17T03:06:14,2420,42.8014,5.9826,0.841,0.055,3.47,155.0,151.0,152.0,11.8,1504.7,271.2,-0.8,0.9,2485.181,13.28,764.0,0.843,86.3
2023-12-17T03:09:14,2420,42.8014,5.9826,0.318,0.055,4.05,156.0,152.0,152.0,11.7,1504.7,271.4,-0.9,0.9,2485.065,13.28,757.0,0.323,80.2
2023-12-17T03:12:13,2420,42.8014,5.9826,0.294,0.067,4.072,155.0,152.0,153.0,11.7,1504.7,271.0,-0.8,0.9,2485.259,13.28,754.0,0.302,77.2
2023-12-17T03:15:13,2420,42.8014,5.9826,0.011,0.081,4.36,155.0,152.0,153.0,11.7,1504.7,271.9,-0.8,0.9,2485.067,13.28,775.0,0.081,7.7
2023-12-17T03:18:13,2420,42.8014,5.9826,1.06,0.043,3.328,155.0,151.0,152.0,11.8,1504.7,271.3,-0.8,0.9,2485.133,13.28,768.0,1.061,87.7
2023-12-17T03:21:13,2420,42.8014,5.9826,0.69,0.039,2.842,155.0,151.0,152.0,11.8,1504.7,271.4,-0.8,0.9,2485.474,13.28,775.0,0.691,86.8
2023-12-17T03:24:13,2420,42.8014,5.9826,1.136,0.025,3.251,155.0,152.0,152.0,11.8,1504.7,271.5,-0.8,0.9,2485.458,13.28,782.0,1.136,88.7
2023-12-17T03:27:13,2420,42.8014,5.9826,1.073,0.017,3.288,155.0,151.0,152.0,11.8,1504.7,271.5,-0.8,0.9,2485.374,13.28,771.0,1.073,89.1
2023-12-17T03:30:14,2420,42.8014,5.9826,0.73,0.275,3.206,155.0,151.0,152.0,11.8,1504.7,271.4,-0.8,0.9,2485.677,13.28,776.0,0.78,69.4
2023-12-17T03:33:13,2420,42.8014,5.9826,1.087,0.269,2.795,155.0,152.0,152.0,11.8,1504.7,271.5,-0.9,0.9,2485.243,13.28,776.0,1.12,76.1
2023-12-17T03:36:13,2420,42.8014,5.9826,0.697,0.02,2.802,155.0,152.0,152.0,11.7,1504.7,271.4,-0.9,0.9,2485.506,13.28,772.0,0.697,88.4
2023-12-17T03:39:14,2420,42.8014,5.9826,1.071,0.015,3.257,155.0,151.0,152.0,11.7,1504.7,271.3,-0.8,0.9,2485.301,13.28,777.0,1.071,89.2
2023-12-17T03:42:14,2420,42.8014,5.9826,1.175,0.019,3.162,155.0,151.0,152.0,11.8,1504.7,271.4,-0.8,0.9,2485.779,13.28,761.0,1.175,89.1
2023-12-17T03:45:14,2420,42.8014,5.9826,1.046,0.027,3.258,155.0,152.0,152.0,11.8,1504.7,271.5,-0.8,0.9,2485.324,13.28,782.0,1.046,88.5
2023-12-17T03:48:14,2420,42.8014,5.9826,1.061,0.03,3.227,155.0,151.0,152.0,11.8,1504.7,271.4,-0.8,0.9,2485.121,13.28,767.0,1.061,88.4
2023-12-17T03:51:14,2420,42.8014,5.9826,1.289,0.041,3.05,155.0,152.0,152.0,11.7,1504.7,271.4,-0.9,0.9,2485.48,13.28,766.0,1.289,88.2
2023-12-17T03:54:13,2420,42.8014,5.9826,0.964,-0.213,2.937,155.0,151.0,152.0,11.8,1504.7,271.4,-0.8,0.9,2485.255,13.28,780.0,0.987,102.5
2023-12-17T03:57:13,2420,42.8014,5.9826,0.902,0.021,2.547,155.0,151.0,152.0,11.8,1504.7,271.5,-0.8,0.9,2485.462,13.28,764.0,0.902,88.7
2023-12-17T04:03:13,2420,42.8014,5.9826,0.894,-0.219,3.058,155.0,151.0,152.0,11.8,1504.7,271.3,-0.8,0.9,2485.372,13.28,771.0,0.92,103.8
2023-12-17T04:06:13,2420,42.8014,5.9826,0.936,0.05,3.423,155.0,151.0,152.0,11.8,1504.7,271.4,-0.8,0.9,2485.55,13.28,787.0,0.937,86.9
2023-12-17T04:09:14,2420,42.8014,5.9826,1.059,0.044,3.301,155.0,151.0,152.0,11.8,1504.7,271.5,-0.8,0.9,2485.38,13.28,767.0,1.06,87.6
2023-12-17T04:12:14,2420,42.8014,5.9826,1.078,0.025,3.305,155.0,151.0,152.0,11.7,1504.7,271.4,-0.8,0.9,2485.49,13.28,772.0,1.078,88.7
2023-12-17T04:15:14,2420,42.8014,5.9826,0.851,0.012,2.582,155.0,151.0,152.0,11.8,1504.7,271.5,-0.8,0.9,2485.627,13.28,778.0,0.851,89.2
2023-12-17T04:18:14,2420,42.8014,5.9826,1.018,0.048,3.289,155.0,152.0,152.0,11.8,1504.7,271.4,-0.8,0.9,2485.572,13.28,767.0,1.019,87.3
2023-12-17T04:21:14,2420,42.8014,5.9826,0.886,0.028,2.571,155.0,151.0,152.0,11.8,1504.7,271.5,-0.8,0.9,2485.195,13.28,759.0,0.886,88.2
2023-12-17T04:24:14,2420,42.8014,5.9826,1.171,0.006,3.178,155.0,151.0,152.0,11.8,1504.7,271.4,-0.8,0.9,2485.428,13.28,760.0,1.171,89.7
2023-12-17T04:27:13,2420,42.8014,5.9826,1.117,0.024,3.235,155.0,151.0,152.0,11.8,1504.7,271.4,-0.8,0.9,2485.235,13.28,779.0,1.117,88.8
2023-12-17T04:30:13,2420,42.8014,5.9826,0.941,0.035,3.401,155.0,151.0,152.0,11.8,1504.7,271.4,-0.9,0.9,2485.376,13.28,783.0,0.942,87.9
2023-12-17T04:33:14,2420,42.8014,5.9826,1.144,0.246,2.733,155.0,151.0,152.0,11.8,1504.7,271.3,-0.8,0.9,2485.524,13.28,771.0,1.17,77.9
2023-12-17T04:36:14,2420,42.8014,5.9826,1.302,-0.006,3.025,155.0,151.0,152.0,11.8,1504.7,271.4,-0.8,0.9,2485.356,13.28,769.0,1.302,90.3
2023-12-17T04:39:13,2420,42.8014,5.9826,1.182,0.03,3.131,155.0,152.0,152.0,11.7,1504.7,271.4,-0.8,0.9,2485.241,13.28,782.0,1.182,88.5
2023-12-17T04:42:13,2420,42.8014,5.9826,0.876,-0.214,3.046,155.0,151.0,152.0,11.8,1504.7,271.6,-0.8,0.9,2485.442,13.28,763.0,0.902,103.7
2023-12-17T04:45:13,2420,42.8014,5.9826,1.082,0.025,3.224,155.0,151.0,152.0,11.8,1504.7,271.5,-0.9,0.9,2485.201,13.28,774.0,1.082,88.7
2023-12-17T04:48:13,2420,42.8014,5.9826,0.871,0.283,3.02,155.0,152.0,152.0,11.7,1504.7,271.5,-0.9,0.9,2485.263,13.28,767.0,0.916,72.0
2023-12-17T04:51:13,2420,42.8014,5.9826,1.055,0.01,3.264,155.0,151.0,152.0,11.8,1504.7,271.5,-0.9,0.9,2485.496,13.28,768.0,1.055,89.5
2023-12-17T04:54:13,2420,42.8014,5.9826,0.891,0.042,3.413,155.0,151.0,152.0,11.8,1504.7,271.4,-0.8,0.9,2485.225,13.28,838.0,0.892,87.3
2023-12-17T04:57:14,2420,42.8014,5.9826,1.04,0.033,3.268,155.0,151.0,152.0,11.8,1504.7,271.4,-0.8,0.9,2485.392,13.28,772.0,1.04,88.2
2023-12-17T05:03:13,2420,42.8014,5.9826,1.052,0.261,2.862,155.0,151.0,152.0,11.8,1504.7,271.6,-0.8,0.9,2485.591,13.28,753.0,1.084,76.1
2023-12-17T05:06:13,2420,42.8014,5.9826,1.263,0.011,2.996,155.0,152.0,152.0,11.8,1504.7,271.5,-0.8,0.9,2485.111,13.28,753.0,1.263,89.5
2023-12-17T05:09:13,2420,42.8014,5.9826,1.13,0.0,3.146,155.0,151.0,152.0,11.8,1504.7,271.4,-0.8,0.9,2485.376,13.28,769.0,1.13,90.0
2023-12-17T05:12:13,2420,42.8014,5.9826,0.863,0.023,3.479,155.0,151.0,152.0,11.8,1504.7,271.4,-0.9,0.9,2485.374,13.28,767.0,0.863,88.5
2023-12-17T05:15:13,2420,42.8014,5.9826,0.729,-0.217,3.179,155.0,151.0,152.0,11.8,1504.7,271.5,-0.8,0.9,2485.789,13.28,777.0,0.761,106.6
2023-12-17T05:18:13,2420,42.8014,5.9826,0.975,0.003,3.364,155.0,151.0,152.0,11.7,1504.7,271.5,-0.8,0.9,2485.51,13.28,766.0,0.975,89.8
2023-12-17T05:21:14,2420,42.8014,5.9826,0.79,0.035,3.548,155.0,151.0,152.0,11.8,1504.7,271.4,-0.8,0.9,2485.408,13.28,777.0,0.791,87.5
2023-12-17T05:24:14,2420,42.8014,5.9826,1.061,0.03,3.307,155.0,151.0,152.0,11.7,1504.7,271.5,-0.8,0.9,2485.502,13.28,774.0,1.061,88.4
2023-12-17T05:27:14,2420,42.8014,5.9826,1.085,-0.239,2.793,155.0,151.0,152.0,11.8,1504.7,271.4,-0.8,0.9,2485.356,13.28,771.0,1.111,102.4
2023-12-17T05:30:14,2420,42.8014,5.9826,1.063,0.019,3.23,155.0,151.0,152.0,11.8,1504.7,271.4,-0.8,0.9,2485.273,13.28,775.0,1.063,89.0
2023-12-17T05:33:13,2420,42.8014,5.9826,1.129,0.05,3.136,155.0,151.0,152.0,11.8,1504.7,271.4,-0.8,0.9,2485.514,13.28,773.0,1.13,87.5
2023-12-17T05:36:13,2420,42.8014,5.9826,1.359,-0.002,2.922,155.0,151.0,152.0,11.7,1504.7,271.5,-0.8,0.9,2485.581,13.28,760.0,1.359,90.1
2023-12-17T05:39:13,2420,42.8014,5.9826,1.24,0.254,2.667,155.0,151.0,152.0,11.8,1504.7,271.4,-0.9,0.8,2485.318,13.28,778.0,1.266,78.4
2023-12-17T05:42:13,2420,42.8014,5.9826,1.092,0.01,3.177,155.0,151.0,152.0,11.8,1504.7,271.4,-0.8,0.9,2485.309,13.28,778.0,1.092,89.5
2023-12-17T05:45:13,2420,42.8014,5.9826,0.886,0.048,3.441,155.0,151.0,152.0,11.7,1504.7,271.4,-0.9,0.8,2485.713,13.28,781.0,0.887,86.9
2023-12-17T05:48:14,2420,42.8014,5.9826,1.092,0.026,3.244,155.0,151.0,152.0,11.8,1504.7,271.3,-0.8,0.9,2485.43,13.28,782.0,1.092,88.6
2023-12-17T05:51:14,2420,42.8014,5.9826,1.099,0.264,2.731,155.0,151.0,152.0,11.7,1504.7,271.5,-0.9,0.9,2485.564,13.28,776.0,1.13,76.5
2023-12-17T05:54:14,2420,42.8014,5.9826,1.358,-0.005,2.94,155.0,151.0,152.0,11.7,1504.7,271.5,-0.8,0.9,2485.293,13.28,765.0,1.358,90.2
2023-12-17T05:57:14,2420,42.8014,5.9826,0.994,0.039,3.255,155.0,152.0,152.0,11.8,1504.7,271.5,-0.8,0.9,2485.697,13.28,769.0,0.995,87.8
2023-12-17T06:03:13,2420,42.8014,5.9826,0.897,0.26,2.978,155.0,152.0,152.0,11.8,1504.7,271.4,-0.8,0.9,2485.338,13.28,768.0,0.934,73.8
2023-12-17T06:06:13,2420,42.8014,5.9826,0.912,-0.24,2.946,155.0,151.0,152.0,11.8,1504.7,271.4,-0.9,0.9,2485.34,13.28,777.0,0.943,104.7
2023-12-17T06:09:13,2420,42.8014,5.9826,1.075,0.018,3.219,155.0,152.0,152.0,11.8,1504.7,271.5,-0.8,0.9,2485.583,13.28,757.0,1.075,89.0
2023-12-17T06:12:14,2420,42.8014,5.9826,0.987,0.035,3.317,155.0,152.0,152.0,11.8,1504.7,271.4,-0.9,0.9,2485.324,13.28,783.0,0.988,88.0
2023-12-17T06:15:14,2420,42.8014,5.9826,1.056,0.021,3.192,155.0,151.0,152.0,11.8,1504.7,271.5,-0.8,0.9,2485.245,13.28,778.0,1.056,88.9
2023-12-17T06:18:14,2420,42.8014,5.9826,1.124,0.029,3.174,155.0,151.0,152.0,11.8,1504.7,271.4,-0.9,0.9,2485.103,13.28,776.0,1.124,88.5
2023-12-17T06:21:14,2420,42.8014,5.9826,1.222,0.012,3.046,155.0,151.0,152.0,11.8,1504.7,271.7,-0.8,0.9,2485.279,13.28,767.0,1.222,89.4
2023-12-17T06:24:14,2420,42.8014,5.9826,1.088,0.028,3.232,155.0,151.0,152.0,11.8,1504.7,271.3,-0.8,0.9,2485.745,13.28,775.0,1.088,88.5
2023-12-17T06:27:13,2420,42.8014,5.9826,0.926,0.017,3.35,155.0,151.0,152.0,11.8,1504.7,271.4,-0.9,0.9,2485.289,13.28,767.0,0.926,89.0
2023-12-17T06:30:13,2420,42.8014,5.9826,0.867,0.05,3.38,155.0,151.0,152.0,11.8,1504.7,271.4,-0.8,0.9,2485.456,13.28,771.0,0.868,86.7
2023-12-17T06:33:14,2420,42.8014,5.9826,1.048,0.035,3.23,155.0,151.0,152.0,11.8,1504.7,271.4,-0.8,0.9,2485.729,13.28,778.0,1.048,88.1
2023-12-17T06:36:13,2420,42.8014,5.9826,0.871,0.258,2.97,155.0,151.0,152.0,11.8,1504.7,271.4,-0.8,0.9,2485.307,13.28,769.0,0.908,73.5
2023-12-17T06:39:13,2420,42.8014,5.9826,1.114,0.035,3.15,155.0,151.0,152.0,11.8,1504.7,271.5,-0.8,0.8,2485.597,13.28,776.0,1.114,88.2
2023-12-17T06:42:13,2420,42.8014,5.9826,1.155,0.002,3.161,155.0,151.0,152.0,11.8,1504.7,271.5,-0.8,0.9,2485.542,13.28,765.0,1.155,89.9
2023-12-17T06:45:13,2420,42.8014,5.9826,1.112,0.025,3.187,155.0,151.0,152.0,11.8,1504.7,271.5,-0.9,0.9,2485.795,13.28,776.0,1.112,88.7
2023-12-17T06:48:13,2420,42.8014,5.9826,1.202,0.026,3.09,155.0,151.0,152.0,11.8,1504.7,271.4,-0.8,0.9,2485.406,13.28,790.0,1.202,88.8
2023-12-17T06:51:14,2420,42.8014,5.9826,1.233,-0.016,3.048,155.0,151.0,152.0,11.8,1504.7,271.5,-0.9,0.9,2485.207,13.28,768.0,1.233,90.7
2023-12-17T06:54:14,2420,42.8014,5.9826,1.053,0.03,3.229,155.0,151.0,152.0,11.8,1504.7,271.5,-0.8,0.9,2485.42,13.28,774.0,1.053,88.4
2023-12-17T06:57:14,2420,42.8014,5.9826,0.93,0.256,2.975,155.0,151.0,152.0,11.8,1504.7,271.5,-0.8,0.9,2485.609,13.28,773.0,0.965,74.6
2023-12-17T07:03:13,2420,42.8014,5.9826,1.132,0.015,3.169,155.0,151.0,152.0,11.8,1504.7,271.5,-0.8,0.9,2485.825,13.28,773.0,1.132,89.2
2023-12-17T07:06:13,2420,42.8014,5.9826,1.086,0.034,3.153,155.0,151.0,152.0,11.8,1504.7,271.4,-0.8,0.9,2485.203,13.28,773.0,1.086,88.2
2023-12-17T07:09:13,2420,42.8014,5.9826,0.752,0.284,3.094,155.0,151.0,152.0,11.8,1504.7,271.3,-0.8,0.9,2485.348,13.28,774.0,0.804,69.3
2023-12-17T07:12:14,2420,42.8014,5.9826,1.091,0.018,3.212,155.0,151.0,152.0,11.8,1504.7,271.3,-0.8,0.8,2485.44,13.28,787.0,1.091,89.1
2023-12-17T07:15:14,2420,42.8014,5.9826,0.912,0.036,3.305,155.0,151.0,152.0,11.7,1504.7,271.5,-0.8,0.9,2485.398,13.28,762.0,0.913,87.7
2023-12-17T07:18:14,2420,42.8014,5.9826,1.306,0.036,2.951,155.0,151.0,152.0,11.8,1504.7,271.3,-0.8,0.9,2485.665,13.28,769.0,1.306,88.4
2023-12-17T07:21:13,2420,42.8014,5.9826,1.325,0.025,2.988,155.0,151.0,152.0,11.8,1504.7,271.4,-0.9,0.9,2485.775,13.28,775.0,1.325,88.9
2023-12-17T07:24:13,2420,42.8014,5.9826,1.076,0.03,3.18,155.0,151.0,152.0,11.8,1504.7,271.4,-0.8,0.9,2485.366,13.28,773.0,1.076,88.4
2023-12-17T07:27:13,2420,42.8014,5.9826,1.119,0.031,3.158,155.0,151.0,152.0,11.8,1504.7,271.5,-0.8,0.9,2485.743,13.28,788.0,1.119,88.4
2023-12-17T07:30:13,2420,42.8014,5.9826,1.135,0.031,3.112,155.0,151.0,152.0,11.8,1504.7,271.6,-0.8,0.9,2485.472,13.28,767.0,1.135,88.4
2023-12-17T07:33:13,2420,42.8014,5.9826,1.075,0.02,3.184,155.0,151.0,152.0,11.8,1504.7,271.4,-0.8,0.9,2485.579,13.28,775.0,1.075,88.9
2023-12-17T07:36:14,2420,42.8014,5.9826,1.2,0.003,3.087,155.0,151.0,152.0,11.8,1504.7,271.5,-0.8,0.9,2485.406,13.28,779.0,1.2,89.9
2023-12-17T07:39:14,2420,42.8014,5.9826,1.101,0.032,3.155,155.0,151.0,152.0,11.8,1504.7,271.5,-0.8,0.9,2485.589,13.28,773.0,1.101,88.3
2023-12-17T07:42:14,2420,42.8014,5.9826,1.042,0.034,3.24,155.0,151.0,152.0,11.8,1504.7,271.4,-0.8,0.9,2485.492,13.28,769.0,1.042,88.1
2023-12-17T07:45:14,2420,42.8014,5.9826,1.129,0.017,3.211,155.0,152.0,152.0,11.8,1504.7,271.5,-0.8,0.9,2485.528,13.28,769.0,1.129,89.1
2023-12-17T07:48:14,2420,42.8014,5.9826,1.183,0.01,3.138,155.0,151.0,152.0,11.8,1504.7,271.4,-0.8,0.9,2485.53,13.28,781.0,1.183,89.5
2023-12-17T07:51:13,2420,42.8014,5.9826,1.047,0.018,3.236,155.0,152.0,152.0,11.8,1504.7,271.5,-0.8,0.9,2485.695,13.28,779.0,1.047,89.0
2023-12-17T07:54:13,2420,42.8014,5.9826,1.122,0.026,3.18,155.0,151.0,152.0,11.8,1504.7,271.5,-0.8,0.9,2485.739,13.28,774.0,1.122,88.7
2023-12-17T07:57:13,2420,42.8014,5.9826,1.064,0.028,3.244,155.0,151.0,152.0,11.8,1504.7,271.4,-0.8,0.9,2485.512,13.28,774.0,1.064,88.5
2023-12-17T08:03:13,2420,42.8014,5.9826,0.827,0.245,3.036,155.0,151.0,152.0,11.8,1504.7,271.5,-0.8,0.9,2485.904,13.28,779.0,0.863,73.5
2023-12-17T08:06:14,2420,42.8014,5.9826,1.17,0.031,3.08,155.0,151.0,152.0,11.8,1504.7,271.4,-0.8,0.9,2485.617,13.28,780.0,1.17,88.5
2023-12-17T08:09:14,2420,42.8014,5.9826,0.831,0.029,3.48,155.0,152.0,152.0,11.8,1504.7,271.5,-0.8,0.9,2485.703,13.28,782.0,0.832,88.0
2023-12-17T08:12:14,2420,42.8014,5.9826,1.032,0.242,2.796,155.0,151.0,152.0,11.8,1504.7,271.5,-0.8,0.9,2485.621,13.28,776.0,1.06,76.8
2023-12-17T08:15:14,2420,42.8014,5.9826,0.893,0.025,3.425,155.0,151.0,152.0,11.7,1504.7,271.4,-0.8,0.9,2485.221,13.28,3222.0,0.893,88.4
2023-12-17T08:18:13,2420,42.8014,5.9826,1.042,0.267,2.798,155.0,151.0,152.0,11.8,1504.7,271.4,-0.8,0.9,2485.655,13.28,776.0,1.075,75.6
2023-12-17T08:21:13,2420,42.8014,5.9826,1.193,0.018,3.1,155.0,152.0,152.0,11.8,1504.7,271.4,-0.9,0.8,2485.747,13.28,772.0,1.193,89.1
2023-12-17T08:24:13,2420,42.8014,5.9826,0.79,0.057,3.567,155.0,152.0,152.0,11.7,1504.7,271.4,-0.9,0.9,2485.336,13.28,777.0,0.792,85.9
2023-12-17T08:27:13,2420,42.8014,5.9826,1.098,0.009,3.204,155.0,151.0,152.0,11.8,1504.7,271.5,-0.8,0.9,2485.454,13.28,775.0,1.098,89.5
2023-12-17T08:30:13,2420,42.8014,5.9826,0.978,0.033,3.306,155.0,151.0,152.0,11.8,1504.7,271.5,-0.8,0.9,2485.506,13.28,763.0,0.979,88.1
2023-12-17T08:33:13,2420,42.8014,5.9826,1.111,0.015,3.186,155.0,152.0,152.0,11.8,1504.7,271.5,-0.8,0.9,2485.651,13.28,761.0,1.111,89.2
2023-12-17T08:36:13,2420,42.8014,5.9826,0.918,0.03,3.338,155.0,151.0,152.0,11.7,1504.7,271.3,-0.8,0.9,2485.496,13.28,774.0,0.918,88.1
2023-12-17T08:39:13,2420,42.8014,5.9826,1.002,0.022,3.248,155.0,151.0,152.0,11.8,1504.7,271.5,-0.9,0.9,2485.914,13.28,763.0,1.002,88.7
2023-12-17T08:42:14,2420,42.8014,5.9826,1.039,0.025,3.236,155.0,151.0,152.0,11.8,1504.7,271.3,-0.8,0.9,2485.801,13.28,788.0,1.039,88.6
2023-12-17T08:45:14,2420,42.8014,5.9826,1.01,0.027,3.33,155.0,151.0,152.0,11.8,1504.7,271.5,-0.8,0.9,2485.601,13.28,766.0,1.01,88.5
2023-12-17T08:48:14,2420,42.8014,5.9826,1.058,0.023,3.243,155.0,152.0,152.0,11.8,1504.7,271.5,-0.9,0.9,2485.761,13.28,776.0,1.058,88.8
2023-12-17T08:51:14,2420,42.8014,5.9826,1.022,0.005,3.26,155.0,152.0,152.0,11.8,1504.7,271.4,-0.8,0.9,2485.697,13.28,783.0,1.022,89.7
2023-12-17T08:54:14,2420,42.8014,5.9826,1.049,0.033,3.255,155.0,151.0,152.0,11.7,1504.7,271.4,-0.8,0.9,2485.261,13.28,819.0,1.049,88.2
2023-12-17T08:57:13,2420,42.8014,5.9826,1.12,0.012,3.225,155.0,151.0,152.0,11.8,1504.7,271.3,-0.8,0.8,2485.625,13.28,780.0,1.12,89.4
2023-12-17T09:03:13,2420,42.8014,5.9826,1.002,0.022,3.321,155.0,151.0,152.0,11.8,1504.7,271.5,-0.8,0.9,2485.498,13.28,765.0,1.002,88.7
2023-12-17T09:06:13,2420,42.8014,5.9826,0.929,0.262,2.955,155.0,151.0,152.0,11.7,1504.7,271.5,-0.8,0.9,2485.372,13.28,768.0,0.965,74.3